User: anonymous   Login
Location: Unspecified
(0.0000°N, 0.0000°E)
Time: 21:56:59
(UTC+00:00)
Language:

ISS - Orbit

View from above orbital plane
View from above orbital plane
View from above satellite
View from above satellite

Ground track
Ground track

The orbit data is extracted from the following two-line orbital elements,

1 25544U 98067A   21205.46278216  .00003425  00000-0  70621-4 0  9990
2 25544  51.6422 158.3931 0001274 191.9335 272.4629 15.48857916294378
Epoch (UTC): 24 July 2021 11:06:24
Eccentricity: 0.0001274
inclination: 51.6422°
perigee height: 419 km
apogee height: 421 km
right ascension of ascending node: 158.3931°
argument of perigee: 191.9335°
revolutions per day: 15.48857916
mean anomaly at epoch: 272.4629°
orbit number at epoch: 29437

The dashed part of the orbit path shows where the satellite is in the earth's shadow,  

DLR